#timestamp,LO_Frequency,Hit,StdDev 
1530010815.3,286047004.2,Y
1530010835.1,286047002.3,P
1530010855.9,286047001.4,N
1530010875.7,286047001.7,P
1530010895.5,286047002.4,Y
1530010915.4,286046999.1,P
1530010935.2,286046998.5,N
1530010955.0,286046999.6,N
1530010955.9,286046999.6,N
1530010975.8,286046997.2,N
1530010995.6,286046996.5,N
1530011015.5,286046998.5,N
1530011035.3,286047001.2,N
1530011055.1,286046998.7,N
1530011075.9,286046999.3,N
1530011095.7,286046999.0,N
1530011115.6,286046998.9,N
1530011135.4,286046998.3,N
1530011155.2,286047001.1,N
1530011175.1,286046999.4,N
1530011176.0,286046999.4,N
1530011195.8,286046999.4,N
1530011215.6,286046999.5,N
1530011235.5,286046998.3,N
1530011255.3,286046998.6,N
1530011275.1,286046999.6,N
1530011295.9,286046997.1,N
1530011315.7,286046997.2,N
1530011335.6,286046996.7,N
1530011355.4,286046999.5,N
1530011375.2,286046997.6,N
1530011395.1,286046997.5,N
1530011396.0,286046997.5,N
1530011415.8,286046997.5,N
1530011435.6,286046999.4,N
1530011455.5,286046999.6,N
1530011475.3,286046997.1,N
1530011495.2,286046997.5,N
1530011515.9,286046996.7,N
1530011535.7,286046997.2,N
1530011555.6,286046997.7,N
1530011575.4,286046996.6,N
1530011595.2,286046994.9,Y
1530011615.1,286046998.9,P
1530011616.0,286046998.9,P
1530011635.8,286046999.3,P
1530011655.7,286046999.5,N
1530011675.5,286046998.9,Y
1530011695.3,286046998.7,P
1530011715.2,286046998.4,P
1530011735.0,286046998.3,P
1530011735.9,286046998.3,Y
1530011755.8,286047000.0,P
1530011775.6,286047001.1,N
1530011795.4,286047000.8,N
1530011815.3,286046998.8,N
1530011835.1,286046999.2,N
1530011855.9,286046998.1,N
1530011875.7,286046998.4,N
1530011895.5,286046998.7,N
1530011915.4,286047000.5,N
1530011935.2,286047001.0,N
1530011955.0,286046998.8,N
1530011955.9,286046998.8,N
1530011975.8,286046998.9,N
1530011995.6,286046999.4,N
1530012015.4,286046999.3,N
1530012035.3,286047001.2,N
1530012055.1,286047000.8,N
1530012075.9,286046999.3,N
1530012095.9,286046999.3,N
1530012115.7,286046996.7,Y
1530012135.6,286046997.1,P
1530012155.4,286046996.9,N
1530012175.2,286046998.9,N
1530012195.1,286046998.7,N
1530012215.2,286046999.4,N
1530012235.1,286046996.6,Y
1530012236.0,286046996.6,P
1530012255.8,286046998.2,N
1530012275.7,286046998.2,N
1530012295.5,286046999.4,N
1530012315.3,286046996.6,Y
1530012335.2,286047000.8,P
1530012355.2,286047001.0,N
1530012375.1,286046998.4,N
1530012376.0,286046998.4,N
1530012395.8,286046998.7,N
1530012415.7,286046998.9,N
1530012435.5,286046999.6,N
1530012455.3,286046999.5,N
1530012475.2,286046999.0,N
1530012495.0,286046999.2,N
1530012495.9,286046999.2,N
1530012515.7,286046998.5,N
1530012535.6,286046998.6,N
1530012555.4,286046998.4,N
1530012575.3,286046999.5,N
1530012595.1,286046997.7,N
1530012596.0,286046997.7,N
1530012615.8,286046996.8,Y
1530012635.7,286046998.9,P
1530012655.5,286046998.7,P
1530012675.4,286046998.8,P
1530012695.2,286046998.5,Y
1530012715.0,286047001.2,P
1530012715.9,286047001.2,N
1530012735.8,286047001.0,N
1530012755.6,286046998.1,N
1530012775.5,286047001.0,N
1530012795.3,286047000.1,N
1530012815.1,286047000.6,N
1530012835.9,286046999.8,N
1530012855.7,286047002.5,N
1530012875.6,286046999.8,N
1530012895.4,286047002.3,N
1530012915.2,286047002.7,N
1530012935.1,286047000.3,N
1530012936.0,286047000.3,N
1530012955.8,286047000.0,N
1530012975.6,286047002.8,N
1530012995.5,286046999.7,N
1530013015.3,286047000.3,N
1530013035.2,286047000.6,N
1530013055.9,286047000.3,N
1530013075.3,286047000.5,N
1530013095.1,286047000.0,N
1530013096.0,286047000.0,N
1530013115.8,286047000.7,N
1530013135.7,286047000.8,N
1530013155.5,286047000.7,N
1530013175.3,286046998.3,N
1530013195.2,286046998.4,N
1530013215.0,286046998.3,N
1530013215.9,286046998.3,N
1530013235.8,286046998.8,N
1530013255.6,286046998.1,N
1530013275.4,286046999.1,N
1530013295.3,286046998.7,N
1530013315.1,286046998.8,N
1530013335.8,286047001.0,N
1530013355.7,286047001.1,N
1530013375.5,286046998.6,N
1530013395.4,286047001.1,N
1530013415.2,286046998.4,N
1530013435.0,286046998.6,N
1530013435.9,286046998.6,N
1530013455.8,286047000.5,N
1530013475.6,286047000.7,N
1530013495.4,286047000.6,N
1530013515.3,286046998.3,N
1530013535.1,286046998.3,N
1530013555.9,286046998.6,N
1530013575.7,286047000.8,N
1530013595.5,286046998.6,N
1530013615.4,286047000.9,N
1530013635.2,286047000.8,N
1530013655.0,286046998.2,N
1530013656.0,286046998.2,N
1530013675.8,286047000.5,N
1530013695.6,286047000.4,N
1530013715.5,286046999.7,N
1530013735.3,286047002.4,N
1530013755.1,286046999.9,N
1530013775.9,286047000.5,N
1530013795.7,286046998.1,N
1530013815.6,286047000.5,N
1530013835.4,286047000.9,N
1530013855.2,286047002.1,N
1530013875.1,286047002.5,N
1530013876.0,286047002.5,N
1530013895.8,286046998.7,N
1530013915.7,286046998.3,N
1530013935.5,286047000.9,N
1530013955.3,286047000.4,N
1530013975.2,286046999.7,N
1530013995.0,286047002.3,N
1530013995.9,286047002.3,N
1530014015.8,286047002.5,N
1530014035.6,286047002.0,N
1530014055.4,286047002.1,N
1530014075.3,286046999.8,N
1530014095.1,286047002.8,N
1530014115.8,286047001.4,N
1530014135.7,286047001.7,N
1530014155.5,286047002.3,N
1530014175.4,286047000.2,N
1530014195.2,286047000.5,N
1530014215.0,286047000.9,N
1530014215.9,286047000.9,N
1530014235.8,286047002.4,N
1530014255.6,286046999.9,N
1530014275.4,286047002.8,N
1530014295.3,286047001.6,N
1530014315.1,286047003.7,N
1530014335.9,286047004.1,N
1530014355.7,286047003.9,N
1530014375.5,286047001.9,N
1530014395.4,286047002.1,N
